Smith Lake Weather Center

Moon Phase Calendar



Smith Lake Water Level
Online Cameras

 


      

Current Conditions in Good Hope
2/28/2024 12:57:39 AM

69°F
Feels Like 69
Clouds
Humidity
83%
Pressure
29.8"
Wind
15.4 mph (SSW)
Dew Point
63°F
UV Index
0/10 (Low)
Visibility
6 mi

Hourly Forecast

Date & Time Wed, Feb 28
12:00 AM
Wed, Feb 28
1:00 AM
Wed, Feb 28
2:00 AM
Wed, Feb 28
3:00 AM
Wed, Feb 28
4:00 AM
Wed, Feb 28
5:00 AM
Wed, Feb 28
6:00 AM
Wed, Feb 28
7:00 AM
Wed, Feb 28
8:00 AM
Wed, Feb 28
9:00 AM
Wed, Feb 28
10:00 AM
Wed, Feb 28
11:00 AM
Wed, Feb 28
12:00 PM
Wed, Feb 28
1:00 PM
Wed, Feb 28
2:00 PM
Wed, Feb 28
3:00 PM
Wed, Feb 28
4:00 PM
Wed, Feb 28
5:00 PM
Wed, Feb 28
6:00 PM
Wed, Feb 28
7:00 PM
Wed, Feb 28
8:00 PM
Wed, Feb 28
9:00 PM
Wed, Feb 28
10:00 PM
Wed, Feb 28
11:00 PM
Thu, Feb 29
12:00 AM
Thu, Feb 29
1:00 AM
Thu, Feb 29
2:00 AM
Thu, Feb 29
3:00 AM
Thu, Feb 29
4:00 AM
Thu, Feb 29
5:00 AM
Thu, Feb 29
6:00 AM
Thu, Feb 29
7:00 AM
Thu, Feb 29
8:00 AM
Thu, Feb 29
9:00 AM
Thu, Feb 29
10:00 AM
Thu, Feb 29
11:00 AM
Thu, Feb 29
12:00 PM
Thu, Feb 29
1:00 PM
Thu, Feb 29
2:00 PM
Thu, Feb 29
3:00 PM
Thu, Feb 29
4:00 PM
Thu, Feb 29
5:00 PM
Thu, Feb 29
6:00 PM
Thu, Feb 29
7:00 PM
Thu, Feb 29
8:00 PM
Thu, Feb 29
9:00 PM
Thu, Feb 29
10:00 PM
Thu, Feb 29
11:00 PM
Condition
Clouds

Clouds

Clouds

Clouds

Clouds

Clouds

Clouds

Clouds

Clouds

Clouds

Rain

Rain

Rain

Rain

Clouds

Clouds

Clouds

Clouds

Clouds

Clouds

Clouds

Clouds

Clouds

Clouds

Clouds

Clouds

Clouds

Clouds

Clouds

Clouds

Clouds

Clouds

Clouds

Clouds

Clouds

Clouds

Clouds

Clouds

Clouds

Clouds

Clouds

Clouds

Clouds

Clouds

Clouds

Clouds

Clouds

Rain
Temperature 68°F69°F68°F67°F66°F66°F65°F65°F66°F66°F67°F57°F49°F45°F43°F44°F47°F46°F44°F43°F42°F40°F39°F39°F38°F38°F37°F36°F36°F35°F34°F35°F38°F40°F44°F46°F49°F49°F51°F51°F51°F49°F47°F47°F47°F47°F47°F46°F
Feels Like 68°F69°F68°F67°F67°F66°F65°F65°F66°F67°F68°F57°F44°F39°F36°F37°F42°F41°F38°F37°F36°F35°F34°F33°F32°F33°F33°F31°F31°F30°F27°F29°F31°F34°F38°F42°F45°F45°F47°F48°F48°F47°F44°F44°F44°F44°F47°F44°F
Cloudiness 100%100%100%100%100%100%100%100%100%100%100%100%100%100%100%100%100%99%99%100%100%100%99%100%100%100%100%100%100%100%100%100%100%100%100%100%100%100%100%100%100%100%100%100%100%100%100%100%
Visibility 6 mi6 mi6 mi6 mi6 mi6 mi6 mi6 mi6 mi6 mi6 mi6 mi6 mi6 mi6 mi6 mi6 mi6 mi6 mi6 mi6 mi6 mi6 mi6 mi6 mi6 mi6 mi6 mi6 mi6 mi6 mi6 mi6 mi6 mi6 mi6 mi6 mi6 mi6 mi6 mi6 mi6 mi6 mi6 mi6 mi6 mi6 mi6 mi
Precipitation 6%0%0%0%0%0%0%16%18%30%38%70%86%67%53%49%45%37%25%0%0%0%0%0%0%0%0%0%0%0%0%0%0%0%0%0%0%0%0%0%0%0%0%0%0%0%0%22%
Humidity 83%83%83%84%83%84%86%86%84%83%82%87%89%85%83%78%70%66%63%62%59%58%58%56%57%58%61%62%61%61%60%57%49%43%38%35%34%35%36%37%41%49%53%52%55%58%61%72%
Dew Point 63°F63°F63°F62°F61°F61°F60°F60°F60°F61°F62°F53°F45°F41°F38°F37°F38°F35°F32°F30°F28°F27°F26°F25°F24°F24°F24°F24°F24°F23°F22°F21°F20°F19°F19°F20°F21°F23°F24°F26°F28°F30°F30°F30°F31°F33°F34°F37°F
Pressure 29.8"29.8"29.8"29.8"29.77"29.8"29.8"29.83"29.85"29.85"29.88"29.97"30.03"30.12"30.15"30.18"30.21"30.27"30.3"30.33"30.36"30.39"30.39"30.39"30.39"30.42"30.42"30.42"30.42"30.45"30.45"30.47"30.47"30.5"30.47"30.45"30.42"30.39"30.36"30.33"30.36"30.36"30.33"30.3"30.33"30.33"30.33"30.3"
Wind Speed 15.5 mph15.4 mph15.6 mph14.8 mph14.7 mph13.3 mph13.4 mph13 mph13.7 mph13.4 mph12.6 mph15.6 mph12.5 mph14.1 mph14.3 mph12.7 mph12.8 mph12.2 mph11.1 mph10 mph9.8 mph7.6 mph8.4 mph8 mph7.9 mph5.6 mph4.5 mph5.5 mph5.6 mph5.9 mph8.9 mph8.2 mph9.4 mph9.9 mph9.2 mph8 mph8.4 mph9 mph9.4 mph8.1 mph5.6 mph5.8 mph5.4 mph6.1 mph5.5 mph6 mph3 mph4.3 mph
Wind
Direction
199°
SSW
198°
SSW
197°
SSW
205°
SSW
205°
SSW
209°
SSW
211°
SSW
211°
SSW
212°
SSW
215°
SW
225°
SW
320°
NW
331°
NNW
333°
NNW
342°
NNW
347°
NNW
344°
NNW
349°
N

N
10°
N
15°
NNE
11°
N
14°
NNE
18°
NNE
21°
NNE
11°
N
24°
NNE
29°
NNE
19°
NNE
10°
N
17°
NNE
21°
NNE
37°
NE
43°
NE
41°
NE
51°
NE
52°
NE
69°
ENE
73°
ENE
77°
ENE
94°
E
99°
E
82°
E
92°
E
108°
ESE
116°
ESE
163°
SSE
124°
SE

Daily Forecast

Date High Low Precip. Humidity
Today
Feb 28

Rain
69 °F
39 °F
86%
89%
Thursday
Feb 29

Rain
51 °F
34 °F
22%
34%
Friday
Mar 1

Rain
52 °F
45 °F
100%
97%
Saturday
Mar 2

Rain
63 °F
51 °F
39%
78%
Sunday
Mar 3

Rain
68 °F
56 °F
85%
79%
Monday
Mar 4

Rain
64 °F
61 °F
100%
92%
Tuesday
Mar 5

Rain
60 °F
58 °F
100%
96%
Wednesday
Mar 6

Rain
66 °F
55 °F
69%
88%
Thursday
Mar 7

Clouds
64 °F
55 °F
0%
84%
Friday
Mar 8

Rain
68 °F
58 °F
100%
95%
Saturday
Mar 9

Rain
71 °F
57 °F
100%
43%
Sunday
Mar 10

Clear
62 °F
46 °F
0%
42%
Monday
Mar 11

Clouds
57 °F
41 °F
0%
45%
Tuesday
Mar 12

Clear
59 °F
38 °F
0%
49%
Wednesday
Mar 13

Rain
61 °F
42 °F
100%
55%
Thursday
Mar 14

Rain
69 °F
56 °F
100%
80%

Temperature 8-14 Day Outlook



Precipitation 8-14 Day Outlook






About Us
Contact Us
Site Map
Search Site
Advertise With Us
   
www.SmithLake.info
THE SMITH LAKE WEBSITE

Copyright 2024, Lakes Online
Privacy    |    Legal